StationID,Date,MaxTemp,MinTemp,Precipitation,Snowfall,SnowDepth
"USR0000ACHG","2009-06-30",49.64,42.08,,,
"USR0000ACHG","2009-07-01",55.22,41.90,,,
"USR0000ACHG","2009-07-02",51.08,44.42,,,
"USR0000ACHG","2009-07-03",55.94,44.42,,,
"USR0000ACHG","2009-07-04",61.70,46.76,,,
"USR0000ACHG","2009-07-05",65.30,50.00,,,
"USR0000ACHG","2009-07-06",70.16,53.78,,,
"USR0000ACHG","2009-07-07",69.62,56.12,,,
"USR0000ACHG","2009-07-08",64.40,48.56,,,
"USR0000ACHG","2009-07-09",61.16,45.86,,,
"USR0000ACHG","2009-07-10",61.16,50.54,,,
"USR0000ACHG","2009-07-11",66.02,51.26,,,
"USR0000ACHG","2009-07-12",62.60,52.16,,,
"USR0000ACHG","2009-07-13",51.98,46.04,,,
"USR0000ACHG","2009-07-14",52.70,41.72,,,
"USR0000ACHG","2009-07-15",50.00,42.08,,,
"USR0000ACHG","2009-07-16",56.12,44.96,,,
"USR0000ACHG","2009-07-17",43.34,39.56,,,
"USR0000ACHG","2009-07-18",40.10,38.12,,,
"USR0000ACHG","2009-07-19",39.56,36.68,,,
"USR0000ACHG","2009-07-20",41.36,39.20,,,
"USR0000ACHG","2009-07-21",37.04,33.98,,,
"USR0000ACHG","2009-07-22",34.70,32.36,,,
"USR0000ACHG","2009-07-23",34.16,32.00,,,
"USR0000ACHG","2009-07-24",36.14,32.72,,,
"USR0000ACHG","2009-07-25",35.96,33.44,,,
"USR0000ACHG","2009-07-26",40.46,34.88,,,
"USR0000ACHG","2009-07-27",42.44,39.56,,,
"USR0000ACHG","2009-07-28",45.14,37.94,,,
"USR0000ACHG","2009-07-29",43.70,36.68,,,
"USR0000ACHG","2009-07-30",42.80,35.96,,,
"USR0000ACHG","2009-07-31",39.56,33.08,,,
"USR0000ACHG","2009-08-01",42.08,34.34,,,
"USR0000ACHG","2009-08-02",39.38,33.98,,,
"USR0000ACHG","2009-08-03",44.24,37.40,,,
"USR0000ACHG","2009-08-04",44.42,38.48,,,
"USR0000ACHG","2009-08-05",46.76,39.74,,,
"USR0000ACHG","2009-08-06",46.22,38.12,,,
"USR0000ACHG","2009-08-07",51.98,37.40,,,
"USR0000ACHG","2009-08-08",53.06,42.26,,,
"USR0000ACHG","2009-08-09",49.46,43.16,,,
"USR0000ACHG","2009-08-10",48.20,39.92,,,
"USR0000ACHG","2009-08-11",51.98,39.74,,,
"USR0000ACHG","2009-08-12",43.88,36.50,,,
"USR0000ACHG","2009-08-13",41.90,36.32,,,
"USR0000ACHG","2009-08-14",40.28,37.76,,,
"USR0000ACHG","2009-08-15",45.32,38.84,,,
"USR0000ACHG","2009-08-16",45.68,37.58,,,
"USR0000ACHG","2009-08-17",45.86,38.48,,,
"USR0000ACHG","2009-08-18",41.18,35.96,,,
"USR0000ACHG","2009-08-19",45.86,33.80,,,
"USR0000ACHG","2009-08-20",44.96,35.42,,,
"USR0000ACHG","2009-08-21",43.52,34.88,,,
"USR0000ACHG","2009-08-22",40.10,34.16,,,
"USR0000ACHG","2009-08-23",35.42,28.94,,,
"USR0000ACHG","2009-08-24",40.28,26.42,,,
"USR0000ACHG","2009-08-25",46.22,32.00,,,
"USR0000ACHG","2009-08-26",39.92,34.52,,,
"USR0000ACHG","2009-08-27",41.18,35.96,,,
"USR0000ACHG","2009-08-28",41.72,36.68,,,
"USR0000ACHG","2009-08-29",44.60,38.30,,,
"USR0000ACHG","2009-08-30",46.40,35.60,,,
"USR0000ACHG","2009-08-31",44.06,34.34,,,
"USR0000ACHG","2009-09-01",38.84,32.00,,,
"USR0000ACHG","2009-09-02",33.26,32.00,,,
"USR0000ACHG","2009-09-03",43.88,32.72,,,
"USR0000ACHG","2009-09-04",55.94,40.64,,,
"USR0000ACHG","2009-09-05",52.34,42.62,,,
"USR0000ACHG","2009-09-06",53.42,40.10,,,
"USR0000ACHG","2009-09-07",40.46,33.98,,,
"USR0000ACHG","2009-09-08",35.42,32.00,,,
"USR0000ACHG","2009-09-09",35.78,33.08,,,
"USR0000ACHG","2009-09-10",44.24,32.54,,,
"USR0000ACHG","2009-09-11",42.44,35.96,,,
"USR0000ACHG","2009-09-12",37.22,33.98,,,
"USR0000ACHG","2009-09-13",37.94,32.90,,,
"USR0000ACHG","2009-09-14",34.88,32.18,,,
"USR0000ACHG","2009-09-15",39.56,33.62,,,
"USR0000ACHG","2009-09-16",38.12,33.80,,,
"USR0000ACHG","2009-09-17",34.70,32.00,,,
"USR0000ACHG","2009-09-18",46.04,32.00,,,
"USR0000ACHG","2009-09-19",42.98,33.62,,,
"USR0000ACHG","2009-09-20",34.16,31.64,,,
"USR0000ACHG","2009-09-21",34.70,24.98,,,
"USR0000ACHG","2009-09-22",24.62,17.60,,,
"USR0000ACHG","2009-09-23",24.80,16.88,,,
"USR0000ACHG","2009-09-24",25.88,20.30,,,
"USR0000ACHG","2009-09-25",27.14,19.04,,,
"USR0000ACHG","2009-09-26",30.56,17.24,,,
"USR0000ACHG","2009-09-27",26.06,16.70,,,
"USR0000ACHG","2009-09-28",31.46,16.16,,,
"USR0000ACHG","2009-09-29",29.84,21.02,,,
"USR0000ACHG","2009-09-30",27.68,24.44,,,
"USR0000ACHG","2009-10-01",26.42,21.38,,,
"USR0000ACHG","2009-10-02",24.80,23.36,,,
"USR0000ACHG","2009-10-03",29.66,24.62,,,
"USR0000ACHG","2009-10-04",31.46,28.04,,,
"USR0000ACHG","2009-10-05",28.76,26.96,,,
"USR0000ACHG","2009-10-06",27.86,25.88,,,
"USR0000ACHG","2009-10-07",32.36,26.42,,,
"USR0000ACHG","2009-10-08",36.14,32.18,,,
"USR0000ACHG","2009-10-09",37.58,35.42,,,
"USR0000ACHG","2009-10-10",36.68,32.36,,,
"USR0000ACHG","2009-10-11",35.78,32.18,,,
"USR0000ACHG","2009-10-12",41.54,35.24,,,
"USR0000ACHG","2009-10-13",48.02,39.92,,,
"USR0000ACHG","2009-10-14",43.34,36.14,,,
"USR0000ACHG","2009-10-15",36.32,27.86,,,
"USR0000ACHG","2009-10-16",33.26,26.06,,,
"USR0000ACHG","2009-10-17",31.28,26.60,,,
"USR0000ACHG","2009-10-18",30.20,25.34,,,
"USR0000ACHG","2009-10-19",26.24,24.08,,,
"USR0000ACHG","2009-10-20",26.42,24.98,,,
"USR0000ACHG","2009-10-21",27.50,24.08,,,
"USR0000ACHG","2009-10-22",29.84,26.78,,,
"USR0000ACHG","2009-10-23",30.20,26.24,,,
"USR0000ACHG","2009-10-24",26.96,22.82,,,
"USR0000ACHG","2009-10-25",23.72,20.30,,,
"USR0000ACHG","2009-10-26",19.94,14.90,,,
"USR0000ACHG","2009-10-27",19.94,13.64,,,
"USR0000ACHG","2009-10-28",22.28,16.16,,,
"USR0000ACHG","2009-10-29",17.78,13.10,,,
"USR0000ACHG","2009-10-30",24.08,14.54,,,
"USR0000ACHG","2009-10-31",22.28,8.42,,,
"USR0000ACHG","2009-11-01",19.76,8.78,,,
"USR0000ACHG","2009-11-02",22.46,15.08,,,
"USR0000ACHG","2009-11-03",18.86,11.84,,,
"USR0000ACHG","2009-11-04",24.80,19.04,,,
"USR0000ACHG","2009-11-05",28.94,23.00,,,
"USR0000ACHG","2009-11-06",29.66,21.02,,,
"USR0000ACHG","2009-11-07",21.56,14.00,,,
"USR0000ACHG","2009-11-08",21.02,-4.18,,,
"USR0000ACHG","2009-11-09",19.94,0.86,,,
"USR0000ACHG","2009-11-10",21.20,7.52,,,
"USR0000ACHG","2009-11-11",20.84,6.26,,,
"USR0000ACHG","2009-11-12",8.42,3.92,,,
"USR0000ACHG","2009-11-13",9.14,1.04,,,
"USR0000ACHG","2009-11-14",2.66,-6.88,,,
"USR0000ACHG","2009-11-15",-6.16,-15.34,,,
"USR0000ACHG","2009-11-16",-2.56,-18.22,,,
"USR0000ACHG","2009-11-17",7.70,-3.64,,,
"USR0000ACHG","2009-11-18",14.36,5.00,,,
"USR0000ACHG","2009-11-19",15.26,0.32,,,
"USR0000ACHG","2009-11-20",10.22,-0.22,,,
"USR0000ACHG","2009-11-21",15.08,7.70,,,
"USR0000ACHG","2009-11-22",17.24,7.52,,,
"USR0000ACHG","2009-11-23",20.30,16.52,,,
"USR0000ACHG","2009-11-24",17.96,15.08,,,
"USR0000ACHG","2009-11-25",17.96,15.08,,,
"USR0000ACHG","2009-11-26",18.50,14.36,,,
"USR0000ACHG","2009-11-27",18.50,8.24,,,
"USR0000ACHG","2009-11-28",15.26,2.84,,,
"USR0000ACHG","2009-11-29",9.32,-8.68,,,
"USR0000ACHG","2009-11-30",19.22,3.92,,,
"USR0000ACHG","2009-12-01",19.22,15.98,,,
"USR0000ACHG","2009-12-02",17.60,12.02,,,
"USR0000ACHG","2009-12-03",11.12,0.14,,,
"USR0000ACHG","2009-12-04",14.90,8.78,,,
"USR0000ACHG","2009-12-05",20.30,12.92,,,
"USR0000ACHG","2009-12-06",29.48,20.12,,,
"USR0000ACHG","2009-12-07",39.92,26.96,,,
"USR0000ACHG","2009-12-08",42.08,37.04,,,
"USR0000ACHG","2009-12-09",37.94,34.16,,,
"USR0000ACHG","2009-12-10",35.78,31.46,,,
"USR0000ACHG","2009-12-11",36.14,31.82,,,
"USR0000ACHG","2009-12-12",36.86,30.74,,,
"USR0000ACHG","2009-12-13",35.42,16.70,,,
"USR0000ACHG","2009-12-14",17.42,6.08,,,
"USR0000ACHG","2009-12-15",11.66,-16.42,,,
"USR0000ACHG","2009-12-16",-5.26,-21.46,,,
"USR0000ACHG","2009-12-17",-11.92,-34.24,,,
"USR0000ACHG","2009-12-18",-4.54,-34.42,,,
"USR0000ACHG","2009-12-19",10.04,-7.06,,,
"USR0000ACHG","2009-12-20",19.04,11.12,,,
"USR0000ACHG","2009-12-21",20.30,19.22,,,
"USR0000ACHG","2009-12-22",21.20,18.86,,,
"USR0000ACHG","2009-12-23",23.00,18.32,,,
"USR0000ACHG","2009-12-24",22.64,18.32,,,
"USR0000ACHG","2009-12-25",24.08,22.10,,,
"USR0000ACHG","2009-12-26",24.44,23.00,,,
"USR0000ACHG","2009-12-27",23.54,22.10,,,
"USR0000ACHG","2009-12-28",23.54,21.02,,,
"USR0000ACHG","2009-12-29",21.02,17.42,,,
"USR0000ACHG","2009-12-30",23.90,17.06,,,
"USR0000ACHG","2009-12-31",23.90,16.52,,,
"USR0000ACHG","2010-01-01",18.14,5.90,,,
"USR0000ACHG","2010-01-02",6.44,1.40,,,
"USR0000ACHG","2010-01-03",17.24,7.16,,,
"USR0000ACHG","2010-01-04",21.38,17.78,,,
"USR0000ACHG","2010-01-05",22.28,20.66,,,
"USR0000ACHG","2010-01-06",21.56,19.76,,,
"USR0000ACHG","2010-01-07",26.42,21.74,,,
"USR0000ACHG","2010-01-08",26.24,21.92,,,
"USR0000ACHG","2010-01-09",23.90,21.74,,,
"USR0000ACHG","2010-01-10",21.92,17.42,,,
"USR0000ACHG","2010-01-11",19.22,5.18,,,
"USR0000ACHG","2010-01-12",19.40,5.18,,,
"USR0000ACHG","2010-01-13",19.58,14.18,,,
"USR0000ACHG","2010-01-14",17.42,14.18,,,
"USR0000ACHG","2010-01-15",20.12,15.26,,,
"USR0000ACHG","2010-01-16",17.24,14.36,,,
"USR0000ACHG","2010-01-17",19.22,16.88,,,
"USR0000ACHG","2010-01-18",17.42,15.80,,,
"USR0000ACHG","2010-01-19",16.34,14.18,,,
"USR0000ACHG","2010-01-20",20.84,14.72,,,
"USR0000ACHG","2010-01-21",17.96,13.64,,,
"USR0000ACHG","2010-01-22",26.78,17.42,,,
"USR0000ACHG","2010-01-23",24.98,16.52,,,
"USR0000ACHG","2010-01-24",19.94,16.88,,,
"USR0000ACHG","2010-01-25",25.16,18.50,,,
"USR0000ACHG","2010-01-26",21.56,16.16,,,
"USR0000ACHG","2010-01-27",18.86,15.26,,,
"USR0000ACHG","2010-01-28",23.54,18.32,,,
"USR0000ACHG","2010-01-29",24.62,21.92,,,
"USR0000ACHG","2010-01-30",29.30,22.64,,,
"USR0000ACHG","2010-01-31",27.32,22.10,,,
"USR0000ACHG","2010-02-01",23.36,18.50,,,
"USR0000ACHG","2010-02-02",19.40,10.40,,,
"USR0000ACHG","2010-02-03",20.12,6.26,,,
"USR0000ACHG","2010-02-04",7.34,-0.94,,,
"USR0000ACHG","2010-02-05",13.64,-0.94,,,
"USR0000ACHG","2010-02-06",15.26,-2.56,,,
"USR0000ACHG","2010-02-07",11.66,-2.20,,,
"USR0000ACHG","2010-02-08",5.18,-1.48,,,
"USR0000ACHG","2010-02-09",18.50,6.08,,,
"USR0000ACHG","2010-02-10",21.02,17.78,,,
"USR0000ACHG","2010-02-11",22.82,20.84,,,
"USR0000ACHG","2010-02-12",21.38,18.86,,,
"USR0000ACHG","2010-02-13",19.40,17.24,,,
"USR0000ACHG","2010-02-14",23.90,19.22,,,
"USR0000ACHG","2010-02-15",22.64,19.76,,,
"USR0000ACHG","2010-02-16",25.88,20.66,,,
"USR0000ACHG","2010-02-17",22.46,20.12,,,
"USR0000ACHG","2010-02-18",23.18,20.30,,,
"USR0000ACHG","2010-02-19",26.24,22.46,,,
"USR0000ACHG","2010-02-20",26.60,21.38,,,
"USR0000ACHG","2010-02-21",24.98,21.02,,,
"USR0000ACHG","2010-02-22",25.16,20.30,,,
"USR0000ACHG","2010-02-23",28.40,17.96,,,
"USR0000ACHG","2010-02-24",21.74,16.34,,,
"USR0000ACHG","2010-02-25",15.80,-5.80,,,
"USR0000ACHG","2010-02-26",12.92,-8.32,,,
"USR0000ACHG","2010-02-27",7.88,-2.20,,,
"USR0000ACHG","2010-02-28",19.04,7.52,,,
"USR0000ACHG","2010-03-01",25.34,16.52,,,
"USR0000ACHG","2010-03-02",22.82,15.44,,,
"USR0000ACHG","2010-03-03",20.30,4.28,,,
"USR0000ACHG","2010-03-04",18.86,-2.56,,,
"USR0000ACHG","2010-03-05",17.78,-1.66,,,
"USR0000ACHG","2010-03-06",2.12,-12.46,,,
"USR0000ACHG","2010-03-07",6.26,-13.90,,,
"USR0000ACHG","2010-03-08",13.10,-6.70,,,
"USR0000ACHG","2010-03-09",-7.78,-22.54,,,
"USR0000ACHG","2010-03-10",9.50,-15.16,,,
"USR0000ACHG","2010-03-11",-15.16,-26.14,,,
"USR0000ACHG","2010-03-12",-2.56,-23.80,,,
"USR0000ACHG","2010-03-13",7.70,-2.38,,,
"USR0000ACHG","2010-03-14",20.66,3.38,,,
"USR0000ACHG","2010-03-15",25.52,17.96,,,
"USR0000ACHG","2010-03-16",24.26,17.78,,,
"USR0000ACHG","2010-03-17",22.28,14.72,,,
"USR0000ACHG","2010-03-18",18.14,15.62,,,
"USR0000ACHG","2010-03-19",28.40,16.88,,,
"USR0000ACHG","2010-03-20",25.88,18.14,,,
"USR0000ACHG","2010-03-21",30.38,15.98,,,
"USR0000ACHG","2010-03-22",23.90,12.74,,,
"USR0000ACHG","2010-03-23",23.90,12.56,,,
"USR0000ACHG","2010-03-24",18.32,13.10,,,
"USR0000ACHG","2010-03-25",19.76,15.08,,,
"USR0000ACHG","2010-03-26",19.04,12.92,,,
"USR0000ACHG","2010-03-27",20.30,12.56,,,
"USR0000ACHG","2010-03-28",25.70,17.42,,,
"USR0000ACHG","2010-03-29",18.32,13.28,,,
"USR0000ACHG","2010-03-30",17.96,6.80,,,
"USR0000ACHG","2010-03-31",18.50,17.06,,,
"USR0000ACHG","2010-04-01",22.28,16.88,,,
"USR0000ACHG","2010-04-02",23.90,17.24,,,
"USR0000ACHG","2010-04-03",33.80,15.98,,,
"USR0000ACHG","2010-04-04",19.40,15.98,,,
"USR0000ACHG","2010-04-05",24.80,10.22,,,
"USR0000ACHG","2010-04-06",9.50,3.02,,,
"USR0000ACHG","2010-04-07",10.76,2.12,,,
"USR0000ACHG","2010-04-08",21.56,1.58,,,
"USR0000ACHG","2010-04-09",41.18,16.70,,,
"USR0000ACHG","2010-04-10",18.86,13.46,,,
"USR0000ACHG","2010-04-11",19.58,17.24,,,
"USR0000ACHG","2010-04-12",21.56,16.88,,,
"USR0000ACHG","2010-04-13",28.04,10.76,,,
"USR0000ACHG","2010-04-14",18.14,9.50,,,
"USR0000ACHG","2010-04-15",23.90,7.34,,,
"USR0000ACHG","2010-04-16",19.94,9.68,,,
"USR0000ACHG","2010-04-17",23.00,19.22,,,
"USR0000ACHG","2010-04-18",25.88,21.38,,,
"USR0000ACHG","2010-04-19",32.00,18.86,,,
"USR0000ACHG","2010-04-20",21.92,18.32,,,
"USR0000ACHG","2010-04-21",26.06,19.58,,,
"USR0000ACHG","2010-04-22",26.96,14.90,,,
"USR0000ACHG","2010-04-23",27.32,13.82,,,
"USR0000ACHG","2010-04-24",26.42,14.72,,,
"USR0000ACHG","2010-04-25",24.80,17.24,,,
"USR0000ACHG","2010-04-26",29.12,23.90,,,
"USR0000ACHG","2010-04-27",33.08,26.78,,,
"USR0000ACHG","2010-04-28",33.08,28.94,,,
"USR0000ACHG","2010-04-29",28.94,22.28,,,
"USR0000ACHG","2010-04-30",30.92,18.50,,,
"USR0000ACHG","2010-05-01",20.12,16.34,,,
"USR0000ACHG","2010-05-02",21.20,15.08,,,
"USR0000ACHG","2010-05-03",33.26,17.78,,,
"USR0000ACHG","2010-05-04",42.98,21.74,,,
"USR0000ACHG","2010-05-05",29.84,23.72,,,
"USR0000ACHG","2010-05-06",27.50,22.10,,,
"USR0000ACHG","2010-05-07",30.38,22.64,,,
"USR0000ACHG","2010-05-08",38.12,23.18,,,
"USR0000ACHG","2010-05-09",51.62,26.60,,,
"USR0000ACHG","2010-05-10",26.42,22.10,,,
"USR0000ACHG","2010-05-11",26.24,21.92,,,
"USR0000ACHG","2010-05-12",30.20,23.54,,,
"USR0000ACHG","2010-05-13",26.78,21.74,,,
"USR0000ACHG","2010-05-14",27.32,21.74,,,
"USR0000ACHG","2010-05-15",31.46,24.26,,,
"USR0000ACHG","2010-05-16",25.34,20.84,,,
"USR0000ACHG","2010-05-17",31.46,22.28,,,
"USR0000ACHG","2010-05-18",33.08,22.10,,,
"USR0000ACHG","2010-05-19",39.02,29.84,,,
"USR0000ACHG","2010-05-20",33.08,27.32,,,
"USR0000ACHG","2010-05-21",35.60,27.86,,,
"USR0000ACHG","2010-05-22",35.06,25.70,,,
"USR0000ACHG","2010-05-23",49.82,26.42,,,
"USR0000ACHG","2010-05-24",43.88,29.66,,,
"USR0000ACHG","2010-05-25",59.90,40.10,,,
"USR0000ACHG","2010-05-26",43.70,37.04,,,
"USR0000ACHG","2010-05-27",45.68,38.66,,,
"USR0000ACHG","2010-05-28",41.00,38.12,,,
"USR0000ACHG","2010-05-29",43.70,37.94,,,
"USR0000ACHG","2010-05-30",43.34,39.02,,,
"USR0000ACHG","2010-05-31",43.88,37.94,,,
"USR0000ACHG","2010-06-01",39.56,32.54,,,
"USR0000ACHG","2010-06-02",43.34,31.64,,,
"USR0000ACHG","2010-06-03",42.80,28.58,,,
"USR0000ACHG","2010-06-04",59.00,28.94,,,
"USR0000ACHG","2010-06-05",32.54,29.30,,,
"USR0000ACHG","2010-06-06",34.70,27.86,,,
"USR0000ACHG","2010-06-07",35.78,31.82,,,
"USR0000ACHG","2010-06-08",44.42,31.10,,,
"USR0000ACHG","2010-06-09",40.28,30.02,,,
"USR0000ACHG","2010-06-10",36.86,29.66,,,
"USR0000ACHG","2010-06-11",34.88,29.12,,,
"USR0000ACHG","2010-06-12",39.02,32.18,,,
"USR0000ACHG","2010-06-13",47.84,33.80,,,
"USR0000ACHG","2010-06-14",33.44,30.20,,,
"USR0000ACHG","2010-06-15",32.72,29.84,,,
"USR0000ACHG","2010-06-16",33.08,29.30,,,
"USR0000ACHG","2010-06-17",34.16,29.66,,,
"USR0000ACHG","2010-06-18",33.98,30.20,,,
"USR0000ACHG","2010-06-19",35.96,30.02,,,
"USR0000ACHG","2010-06-20",41.72,32.00,,,
"USR0000ACHG","2010-06-21",46.22,37.22,,,
"USR0000ACHG","2010-06-22",47.66,38.84,,,
"USR0000ACHG","2010-06-23",47.84,40.64,,,
"USR0000ACHG","2010-06-24",39.92,35.06,,,
"USR0000ACHG","2010-06-25",43.70,34.16,,,
"USR0000ACHG","2010-06-26",51.44,38.84,,,
"USR0000ACHG","2010-06-27",43.70,39.02,,,
"USR0000ACHG","2010-06-28",49.82,37.94,,,
"USR0000ACHG","2010-06-29",38.84,35.60,,,
"USR0000ACHG","2010-06-30",44.06,34.70,,,
"USR0000ACHG","2010-07-01",36.14,32.00,,,
"USR0000ACHG","2010-07-02",36.14,33.26,,,
"USR0000ACHG","2010-07-03",42.80,33.26,,,
"USR0000ACHG","2010-07-04",43.34,33.08,,,
"USR0000ACHG","2010-07-05",35.60,31.82,,,
"USR0000ACHG","2010-07-06",33.98,31.28,,,
"USR0000ACHG","2010-07-07",37.76,33.44,,,
"USR0000ACHG","2010-07-08",38.66,35.60,,,
"USR0000ACHG","2010-07-09",40.46,34.16,,,
"USR0000ACHG","2010-07-10",38.66,34.52,,,
"USR0000ACHG","2010-07-11",43.34,35.24,,,
"USR0000ACHG","2010-07-12",47.84,38.84,,,
"USR0000ACHG","2010-07-13",43.16,36.68,,,
"USR0000ACHG","2010-07-14",44.06,38.48,,,
"USR0000ACHG","2010-07-15",45.50,37.04,,,
"USR0000ACHG","2010-07-16",49.10,38.48,,,
"USR0000ACHG","2010-07-17",55.58,43.16,,,
"USR0000ACHG","2010-07-18",42.62,38.12,,,
"USR0000ACHG","2010-07-19",44.60,38.84,,,
"USR0000ACHG","2010-07-20",42.26,35.42,,,
"USR0000ACHG","2010-07-21",40.28,34.16,,,
"USR0000ACHG","2010-07-22",48.92,35.60,,,
"USR0000ACHG","2010-07-23",38.66,32.18,,,
"USR0000ACHG","2010-07-24",36.68,31.82,,,
"USR0000ACHG","2010-07-25",36.14,33.80,,,
"USR0000ACHG","2010-07-26",39.20,35.06,,,
"USR0000ACHG","2010-07-27",46.22,35.42,,,
"USR0000ACHG","2010-07-28",37.22,34.70,,,
"USR0000ACHG","2010-07-29",39.38,34.70,,,
"USR0000ACHG","2010-07-30",40.64,37.76,,,
"USR0000ACHG","2010-07-31",42.44,40.10,,,
"USR0000ACHG","2010-08-01",44.06,41.36,,,
"USR0000ACHG","2010-08-02",43.16,40.82,,,
"USR0000ACHG","2010-08-03",45.32,41.54,,,
"USR0000ACHG","2010-08-04",42.80,39.02,,,
"USR0000ACHG","2010-08-05",48.38,38.48,,,
"USR0000ACHG","2010-08-06",40.82,36.86,,,
"USR0000ACHG","2010-08-07",39.56,35.96,,,
"USR0000ACHG","2010-08-08",37.76,36.14,,,
"USR0000ACHG","2010-08-09",41.54,36.50,,,
"USR0000ACHG","2010-08-10",41.72,35.96,,,
"USR0000ACHG","2010-08-11",43.88,36.50,,,
"USR0000ACHG","2010-08-12",39.38,36.68,,,
"USR0000ACHG","2010-08-13",40.82,37.58,,,
"USR0000ACHG","2010-08-14",44.42,41.18,,,
"USR0000ACHG","2010-08-15",44.60,40.64,,,
"USR0000ACHG","2010-08-16",41.00,36.14,,,
"USR0000ACHG","2010-08-17",36.50,33.62,,,
"USR0000ACHG","2010-08-18",34.88,32.18,,,
"USR0000ACHG","2010-08-19",39.74,30.38,,,
"USR0000ACHG","2010-08-20",51.08,35.78,,,
"USR0000ACHG","2010-08-21",40.46,35.24,,,
"USR0000ACHG","2010-08-22",40.10,33.62,,,
"USR0000ACHG","2010-08-23",51.26,37.94,,,
"USR0000ACHG","2010-08-24",47.66,39.38,,,
"USR0000ACHG","2010-08-25",52.52,40.64,,,
"USR0000ACHG","2010-08-26",48.74,37.40,,,
"USR0000ACHG","2010-08-27",43.34,37.76,,,
"USR0000ACHG","2010-08-28",38.84,35.06,,,
"USR0000ACHG","2010-08-29",42.26,33.80,,,
"USR0000ACHG","2010-08-30",39.92,33.08,,,
"USR0000ACHG","2010-08-31",39.56,32.36,,,
"USR0000ACHG","2010-09-01",40.46,35.06,,,
"USR0000ACHG","2010-09-02",36.68,33.80,,,
"USR0000ACHG","2010-09-03",43.88,33.08,,,
"USR0000ACHG","2010-09-04",38.48,35.06,,,
"USR0000ACHG","2010-09-05",41.00,38.30,,,
"USR0000ACHG","2010-09-06",46.22,39.38,,,
"USR0000ACHG","2010-09-07",41.72,34.70,,,
"USR0000ACHG","2010-09-08",35.96,32.54,,,
"USR0000ACHG","2010-09-09",36.50,32.54,,,
"USR0000ACHG","2010-09-10",51.80,37.22,,,
"USR0000ACHG","2010-09-11",50.90,42.44,,,
"USR0000ACHG","2010-09-12",53.78,42.98,,,
"USR0000ACHG","2010-09-13",50.36,42.98,,,
"USR0000ACHG","2010-09-14",51.80,42.08,,,
"USR0000ACHG","2010-09-15",53.42,44.24,,,
"USR0000ACHG","2010-09-16",58.46,44.60,,,
"USR0000ACHG","2010-09-17",53.78,37.76,,,
"USR0000ACHG","2010-09-18",54.14,46.04,,,
"USR0000ACHG","2010-09-19",47.66,41.00,,,
"USR0000ACHG","2010-09-20",40.82,30.38,,,
"USR0000ACHG","2010-09-21",32.36,30.74,,,
"USR0000ACHG","2010-09-22",31.46,29.66,,,
"USR0000ACHG","2010-09-23",35.78,29.66,,,
"USR0000ACHG","2010-09-24",33.62,26.24,,,
"USR0000ACHG","2010-09-25",39.02,25.52,,,
"USR0000ACHG","2010-09-26",34.70,19.58,,,
"USR0000ACHG","2010-09-27",29.12,17.60,,,
"USR0000ACHG","2010-09-28",25.16,18.68,,,
"USR0000ACHG","2010-09-29",28.04,24.62,,,
"USR0000ACHG","2010-09-30",32.00,27.86,,,
"USR0000ACHG","2010-10-01",32.54,27.86,,,
"USR0000ACHG","2010-10-02",32.00,26.06,,,
"USR0000ACHG","2010-10-03",29.84,20.84,,,
"USR0000ACHG","2010-10-04",25.88,21.20,,,
"USR0000ACHG","2010-10-05",26.78,20.66,,,
"USR0000ACHG","2010-10-06",28.40,21.74,,,
"USR0000ACHG","2010-10-07",27.50,22.10,,,
"USR0000ACHG","2010-10-08",30.92,21.74,,,
"USR0000ACHG","2010-10-09",24.44,20.48,,,
"USR0000ACHG","2010-10-10",35.96,20.48,,,
"USR0000ACHG","2010-10-11",29.84,19.40,,,
"USR0000ACHG","2010-10-12",23.72,12.92,,,
"USR0000ACHG","2010-10-13",27.32,11.48,,,
"USR0000ACHG","2010-10-14",42.98,16.34,,,
"USR0000ACHG","2010-10-15",34.88,15.44,,,
"USR0000ACHG","2010-10-16",22.82,16.70,,,
"USR0000ACHG","2010-10-17",28.58,23.36,,,
"USR0000ACHG","2010-10-18",31.82,27.32,,,
"USR0000ACHG","2010-10-19",28.76,25.16,,,
"USR0000ACHG","2010-10-20",26.24,24.98,,,
"USR0000ACHG","2010-10-21",25.34,23.54,,,
"USR0000ACHG","2010-10-22",25.16,23.90,,,
"USR0000ACHG","2010-10-23",25.16,20.66,,,
"USR0000ACHG","2010-10-24",26.42,19.76,,,
"USR0000ACHG","2010-10-25",25.34,17.78,,,
"USR0000ACHG","2010-10-26",22.64,16.34,,,
"USR0000ACHG","2010-10-27",23.00,20.48,,,
"USR0000ACHG","2010-10-28",21.74,16.16,,,
"USR0000ACHG","2010-10-29",17.78,14.00,,,
"USR0000ACHG","2010-10-30",15.80,9.68,,,
"USR0000ACHG","2010-10-31",20.66,11.84,,,
"USR0000ACHG","2010-11-01",25.88,21.02,,,
"USR0000ACHG","2010-11-02",21.56,15.80,,,
"USR0000ACHG","2010-11-03",21.74,12.20,,,
"USR0000ACHG","2010-11-04",14.54,5.00,,,
"USR0000ACHG","2010-11-05",19.40,13.28,,,
"USR0000ACHG","2010-11-06",12.92,6.62,,,
"USR0000ACHG","2010-11-07",8.24,3.02,,,
"USR0000ACHG","2010-11-08",13.28,1.40,,,
"USR0000ACHG","2010-11-09",19.04,13.28,,,
"USR0000ACHG","2010-11-10",18.86,12.38,,,
"USR0000ACHG","2010-11-11",22.28,19.40,,,
"USR0000ACHG","2010-11-12",22.64,19.94,,,
"USR0000ACHG","2010-11-13",20.12,15.80,,,
"USR0000ACHG","2010-11-14",17.78,8.78,,,
"USR0000ACHG","2010-11-15",7.34,-3.82,,,
"USR0000ACHG","2010-11-16",10.40,-7.42,,,
"USR0000ACHG","2010-11-17",22.28,11.84,,,
"USR0000ACHG","2010-11-18",35.06,22.64,,,
"USR0000ACHG","2010-11-19",40.82,32.36,,,
"USR0000ACHG","2010-11-20",42.26,35.06,,,
"USR0000ACHG","2010-11-21",42.98,38.12,,,
"USR0000ACHG","2010-11-22",41.00,28.40,,,
"USR0000ACHG","2010-11-23",30.38,24.80,,,
"USR0000ACHG","2010-11-24",25.52,19.58,,,
"USR0000ACHG","2010-11-25",19.76,5.00,,,
"USR0000ACHG","2010-11-26",19.94,5.18,,,
"USR0000ACHG","2010-11-27",22.28,15.62,,,
"USR0000ACHG","2010-11-28",14.00,-7.24,,,
"USR0000ACHG","2010-11-29",7.52,-8.86,,,
"USR0000ACHG","2010-11-30",18.50,6.98,,,
"USR0000ACHG","2010-12-01",20.48,13.64,,,
"USR0000ACHG","2010-12-02",18.14,4.64,,,
"USR0000ACHG","2010-12-03",15.80,5.90,,,
"USR0000ACHG","2010-12-04",15.98,14.00,,,
"USR0000ACHG","2010-12-05",16.88,14.00,,,
"USR0000ACHG","2010-12-06",19.22,15.98,,,
"USR0000ACHG","2010-12-07",26.06,16.88,,,
"USR0000ACHG","2010-12-08",29.12,19.94,,,
"USR0000ACHG","2010-12-09",23.18,12.92,,,
"USR0000ACHG","2010-12-10",13.64,3.74,,,
"USR0000ACHG","2010-12-11",15.62,9.32,,,
"USR0000ACHG","2010-12-12",18.68,14.36,,,
"USR0000ACHG","2010-12-13",19.22,0.50,,,
"USR0000ACHG","2010-12-14",-0.04,-13.18,,,
"USR0000ACHG","2010-12-15",11.66,-3.10,,,
"USR0000ACHG","2010-12-16",22.46,10.04,,,
"USR0000ACHG","2010-12-17",26.96,15.98,,,
"USR0000ACHG","2010-12-18",23.18,8.96,,,
"USR0000ACHG","2010-12-19",26.96,6.44,,,
"USR0000ACHG","2010-12-20",5.00,-6.52,,,
"USR0000ACHG","2010-12-21",16.88,1.22,,,
"USR0000ACHG","2010-12-22",15.98,4.64,,,
"USR0000ACHG","2010-12-23",14.90,3.02,,,
"USR0000ACHG","2010-12-24",13.10,6.08,,,
"USR0000ACHG","2010-12-25",12.38,4.64,,,
"USR0000ACHG","2010-12-26",14.18,11.30,,,
"USR0000ACHG","2010-12-27",14.36,12.02,,,
"USR0000ACHG","2010-12-28",14.36,6.26,,,
"USR0000ACHG","2010-12-29",10.76,0.86,,,
"USR0000ACHG","2010-12-30",19.40,9.50,,,
"USR0000ACHG","2010-12-31",21.56,14.54,,,
"USR0000ACHG","2011-01-01",22.82,18.86,,,
"USR0000ACHG","2011-01-02",22.46,19.04,,,
"USR0000ACHG","2011-01-03",23.90,21.38,,,
"USR0000ACHG","2011-01-04",23.90,19.58,,,
"USR0000ACHG","2011-01-05",20.30,14.36,,,
"USR0000ACHG","2011-01-06",14.54,9.32,,,
"USR0000ACHG","2011-01-07",18.68,12.02,,,
"USR0000ACHG","2011-01-08",28.04,16.34,,,